TimeMST,TemperatureF,Dew PointF,Humidity,Sea Level PressureIn,VisibilityMPH,Wind Direction,Wind SpeedMPH,Gust SpeedMPH,PrecipitationIn,Events,Conditions,WindDirDegrees,DateUTC
12:54 AM,15.1,9.0,77,30.29,10.0,Calm,Calm,-,N/A,,Clear,0,2013-01-21 07:54:00
1:54 AM,16.0,8.1,71,30.28,10.0,NE,3.5,-,N/A,,Clear,50,2013-01-21 08:54:00
2:54 AM,12.9,5.0,71,30.28,10.0,Calm,Calm,-,N/A,,Clear,0,2013-01-21 09:54:00
3:54 AM,12.9,3.9,67,30.29,10.0,Calm,Calm,-,N/A,,Clear,0,2013-01-21 10:54:00
4:54 AM,15.1,3.9,61,30.29,10.0,NE,3.5,-,N/A,,Clear,40,2013-01-21 11:54:00
5:54 AM,23.0,1.9,40,30.28,10.0,NE,5.8,-,N/A,,Clear,40,2013-01-21 12:54:00
6:54 AM,26.1,1.0,34,30.33,10.0,ENE,6.9,-,N/A,,Clear,60,2013-01-21 13:54:00
7:54 AM,28.0,1.9,33,30.33,10.0,NE,10.4,-,N/A,,Clear,50,2013-01-21 14:54:00
8:54 AM,36.0,1.9,24,30.30,10.0,ENE,15.0,-,N/A,,Clear,60,2013-01-21 15:54:00
9:54 AM,39.9,3.0,21,30.33,10.0,ENE,10.4,-,N/A,,Clear,70,2013-01-21 16:54:00
10:54 AM,42.1,3.0,20,30.36,10.0,ENE,15.0,19.6,N/A,,Clear,70,2013-01-21 17:54:00
11:54 AM,43.0,8.1,24,30.35,10.0,NE,13.8,20.7,N/A,,Clear,50,2013-01-21 18:54:00
12:54 PM,46.0,7.0,20,30.32,10.0,NE,15.0,-,N/A,,Clear,40,2013-01-21 19:54:00
1:54 PM,46.0,5.0,19,30.30,10.0,NE,13.8,-,N/A,,Clear,40,2013-01-21 20:54:00
2:54 PM,45.0,7.0,21,30.32,10.0,NE,12.7,-,N/A,,Clear,40,2013-01-21 21:54:00
3:54 PM,44.1,12.0,27,30.31,10.0,NE,11.5,-,N/A,,Clear,50,2013-01-21 22:54:00
4:54 PM,41.0,12.9,32,30.32,10.0,NE,11.5,-,N/A,,Clear,50,2013-01-21 23:54:00
5:54 PM,36.0,9.0,33,30.32,10.0,Calm,Calm,-,N/A,,Clear,0,2013-01-22 00:54:00
6:54 PM,25.0,12.0,58,30.36,10.0,Calm,Calm,-,N/A,,Clear,0,2013-01-22 01:54:00
7:54 PM,25.0,12.0,58,30.34,10.0,Calm,Calm,-,N/A,,Clear,0,2013-01-22 02:54:00
8:54 PM,19.9,12.0,71,30.34,10.0,Calm,Calm,-,N/A,,Clear,0,2013-01-22 03:54:00
9:54 PM,19.9,10.9,68,30.33,10.0,NE,9.2,-,N/A,,Clear,40,2013-01-22 04:54:00
10:54 PM,21.0,10.0,63,30.31,10.0,NNE,4.6,-,N/A,,Clear,30,2013-01-22 05:54:00
11:54 PM,16.0,9.0,74,30.31,10.0,Calm,Calm,-,N/A,,Clear,0,2013-01-22 06:54:00